Weather in Jinja

Uganda     0°26′04″N   33°12′34″E
temp.,
°C
wind,
m/s
gust,
m/s
humid.,
%
clouds,
%
prec.,
mm/h
press.,
hPa
HPBL,
m
23 september, thu
thu2300:00+20sse1175100 0.0 101274
03:00+20e118393 0.3 101030
06:00+19ese228849 0.6 101280
09:00+23ese137224 1.0 1013330
12:00+27s225084 1.1 10121342
15:00+27s225129 1.1 10101228
18:00+24s25637 0.3 1009238
21:00+20s12815 0.3 101282
24 september, fri
fri2400:00+20sse268240 0.1 1012188
03:00+19se118699 0.1 101087
06:00+18nne129094 0.2 101269
09:00+23e126675 0.4 1014416
12:00+28sse224327 0.1 10121514
15:00+28sse43416 0.1 10081279
18:00+25ssw24590 0.1 1009311
21:00+20ssw117827 0.1 1012100
25 september, sat
sat2500:00+20sse227986 0.0 1012138
03:00+19ese229287 2.0 101269
06:00+18e129291 0.2 101367
09:00+22ene127428 0.9 1014297
12:00+28s344471 0.1 10121551
15:00+27s454766 0.1 1009887
18:00+23ssw126798 0.0 101068
21:00+20ene258299 1.0 1013317
26 september, sun
sun2600:00+18nw2592100 0.3 1013207
03:00+18nnw119392 0.3 101261
06:00+18n1489100 0.0 1013141
09:00+22nw1272100 0.0 1015411
12:00+24wnw117119 3.1 1014792
15:00+25wsw216129 6.1 1010899
18:00+24wnw126214 0.3 1009152
21:00+19e118999 1.6 101329
27 september, mon
mon2700:00+18nnw1297100 4.6 101587
03:00+17nnw1197100 6.6 101348
06:00+17nnw239694 0.0 1014101
09:00+20n138692 0.1 1015249
12:00+23nnw237897 3.6 1014624
15:00+23nw127840 8.8 1011601
18:00+22wnw237627 2.0 1010184
21:00+18nw1288100 2.0 101233